Regional Weather Roundup
Issued by NWS

Home | Current Version | Previous Version | Graphics & Text | Print | Product List | Glossary On
Versions: 1 2 3 4 5 6 7 8 9 10 11 12 13 14 15 16 17 18 19 20 21 22 23 24 25 26 27 28 29 30 31 32 33 34 35 36 37 38 39 40 41 42 43 44 45 46 47 48 49 50
000
ASUS43 KFSD 261610
RWRSD

WEATHER ROUNDUP FOR SOUTH DAKOTA
NATIONAL WEATHER SERVICE SIOUX FALLS SD
1100 AM CDT FRI AUG 26 2016

NOTE: "FAIR" INDICATES FEW OR NO CLOUDS BELOW 12,000 FEET WITH NO
SIGNIFICANT WEATHER AND/OR OBSTRUCTIONS TO VISIBILITY.


SDZ001>005-009-010-012>017-261700-
NORTHWEST AND NORTH CENTRAL SOUTH DAKOTA

CITY           SKY/WX    TMP DP  RH WIND       PRES   REMARKS
BUFFALO          N/A     69  47  45 S12       30.03F
FAITH            N/A     57  56  96 S7        30.14R
MOBRIDGE       LGT RAIN  58  50  75 SW9       30.14R
$$

SDZ012>016-024>037-041>051-057-063-072>074-261700-
SOUTHWEST AND SOUTH CENTRAL SOUTH DAKOTA

CITY           SKY/WX    TMP DP  RH WIND       PRES   REMARKS
RAPID CTY ARPT CLOUDY    55  52  89 SE6       30.15F
PIERRE         LGT RAIN  57  54  89 W9        30.20R
CUSTER         FOG       48  46  93 E7        30.19R VSB 1/4
ELLSWORTH AFB  PTSUNNY   56  55  95 S10       30.14
PHILIP         CLOUDY    56  56 100 E12       30.14F
PINE RIDGE     LGT RAIN  57  55  93 S5        30.14S
WINNER         PTSUNNY   69  52  54 S9        30.16R
$$

SDZ004>011-016>023-039-040-261700-
NORTHEAST SOUTH DAKOTA

CITY           SKY/WX    TMP DP  RH WIND       PRES   REMARKS
ABERDEEN       CLOUDY    67  53  61 VRB5      30.14F
WATERTOWN      MOSUNNY   65  54  67 S5        30.17S
BROOKINGS      SUNNY     64  54  69 VRB5      30.18S
SISSETON         N/A     71  51  49 VRB5      30.14S
$$

SDZ017-020-022-023-036>040-048>070-261700-
SOUTHEAST SOUTH DAKOTA

CITY           SKY/WX    TMP DP  RH WIND       PRES   REMARKS
SIOUX FALLS    PTSUNNY   67  56  67 SE7       30.18S
HURON          MOSUNNY   67  53  61 S8        30.15F
CHAMBERLAIN    CLOUDY    67  56  66 SE7       30.16S
MITCHELL       CLOUDY    68  53  58 SW5       30.17S
YANKTON        CLOUDY    66  54  63 E3        30.15F
$$

ABBREVIATIONS USED IN REMARKS
   TC - TEMPERATURE IN CELSIUS
  WCI - WIND CHILL INDEX
   HX - HEAT INDEX
  VSB - VISIBILITY




USA.gov is the U.S. government's official web portal to all federal, state and local government web resources and services.